This demonstration page uses our WeatherBlox Daily Observations layout. Learn more.

Left ArrowRight Arrow

40.92945, -100.16068

Hourly Observations for October 10, 2020

Temp ( °F °C ) Dew Point ( °F °C ) Humidity (%) Winds ( mph kmh ) Pressure ( in mb ) Visibility ( mi km ) Precip ( " mm )
12:15 am 00:15 Clear 51 10.3 39 3.8 64 64 WNW 7 11 29.90 1012 10 16 N/A
12:35 am 00:35 Clear 48 9 39 3.7 70 70 NW 7 11 29.91 1013 10 16 N/A
12:55 am 00:55 Clear 47 8.5 38 3.4 71 71 WNW 5 7 29.92 1013 10 16 N/A
1:15 am 01:15 Clear 45 7.2 37 3 75 75 WNW 6 9 29.93 1013 10 16 N/A
1:35 am 01:35 Clear 45 7.2 37 3 75 75 W 6 9 29.93 1013 10 16 N/A
1:55 am 01:55 Clear 46 7.7 38 3.2 73 73 WNW 7 11 29.93 1014 10 16 N/A
2:15 am 02:15 Clear 45 7.3 37 3 74 74 W 9 15 29.94 1014 10 16 N/A
2:35 am 02:35 Clear 47 8.2 38 3.3 72 72 WNW 8 13 29.94 1014 10 16 N/A
2:55 am 02:55 Hazy 51 10.3 38 3.6 63 63 N 10 17 29.91 1013 5 8 N/A
3:15 am 03:15 Clear 53 11.5 39 3.7 59 59 NE 3 6 29.90 1012 7 11 N/A
3:35 am 03:35 Clear 52 11 38 3.3 59 59 NNW 3 6 29.90 1013 10 16 N/A
3:55 am 03:55 Clear 50 10.2 38 3.6 64 64 E 3 6 29.90 1013 10 16 N/A
4:15 am 04:15 Clear 52 11.1 39 4 62 62 N 3 6 29.90 1013 7 11 N/A
4:35 am 04:35 Clear 47 8.2 38 3.3 72 72 N 6 9 29.94 1014 10 16 N/A
4:55 am 04:55 Clear 50 10 39 4 67 67 NNW 5 7 29.93 1014 10 16 N/A
5:15 am 05:15 Clear 44 6.8 38 3.1 78 78 WNW 5 7 29.97 1015 10 16 N/A
5:35 am 05:35 Clear 46 7.6 39 3.7 77 77 N 8 13 29.96 1015 10 16 N/A
5:55 am 05:55 Clear 45 7.3 39 3.7 78 78 W 8 13 29.99 1015 10 16 N/A
6:15 am 06:15 Clear 45 7.1 39 4 81 81 NNW 7 11 30.00 1016 10 16 N/A
6:35 am 06:35 Clear 43 6.2 38 3.6 84 84 NNE 9 15 30.01 1016 10 16 N/A
6:55 am 06:55 Clear 52 11.1 42 5.3 68 68 NNE 8 13 29.96 1015 10 16 N/A
7:15 am 07:15 Clear 51 10.7 42 5.3 70 70 NNE 9 15 29.96 1015 10 16 N/A
7:35 am 07:35 Clear 52 11.2 42 5.5 68 68 NE 9 15 29.97 1015 10 16 N/A
7:55 am 07:55 Sunny 52 11 42 5.4 69 69 NE 9 15 29.97 1015 10 16 N/A
8:15 am 08:15 Sunny 52 11.3 42 5.5 68 68 NE 9 15 29.97 1015 10 16 N/A
8:35 am 08:35 Sunny 54 12 42 5.5 65 65 ENE 8 13 29.96 1015 10 16 N/A
8:55 am 08:55 Sunny 55 12.6 42 5.7 63 63 E 6 9 29.97 1015 10 16 N/A
9:15 am 09:15 Sunny 57 14 43 5.9 58 58 ENE 8 13 29.94 1014 10 16 N/A
9:35 am 09:35 Sunny 60 15.3 42 5.7 53 53 E 8 13 29.94 1014 10 16 N/A
9:55 am 09:55 Sunny 61 16.1 43 6 51 51 E 8 13 29.94 1014 10 16 N/A
10:15 am 10:15 Sunny 63 17.2 43 6.1 48 48 E 9 15 29.93 1013 10 16 N/A
10:35 am 10:35 Sunny 65 18.4 44 6.4 46 46 E 9 15 29.92 1013 10 16 N/A
10:55 am 10:55 Sunny 67 19.4 44 6.4 43 43 E 14 22 29.91 1013 10 16 N/A
11:15 am 11:15 Sunny 68 20.2 44 6.4 41 41 E 14 22 29.90 1013 10 16 N/A
11:35 am 11:35 Sunny 70 20.9 44 6.4 39 39 E 10 17 29.89 1012 10 16 N/A
11:55 am 11:55 Sunny 71 21.7 44 6.5 37 37 E 10 17 29.89 1012 10 16 N/A
12:15 pm 12:15 Sunny 73 22.5 44 6.6 36 36 E 9 15 29.88 1012 10 16 N/A
12:55 pm 12:55 Sunny 75 23.8 43 6.1 32 32 ESE 10 17 29.85 1011 10 16 N/A
1:15 pm 13:15 Sunny 76 24.5 43 6 30 30 ESE 9 15 29.84 1011 10 16 N/A
1:35 pm 13:35 Sunny 76 24.6 43 6.2 31 31 E 9 15 29.83 1010 10 16 N/A
1:55 pm 13:55 Sunny 77 25.1 43 6.2 30 30 E 12 19 29.82 1010 10 16 N/A
2:15 pm 14:15 Sunny 78 25.5 42 5.7 28 28 ESE 9 15 29.81 1009 10 16 N/A
2:35 pm 14:35 Sunny 78 25.8 42 5.6 27 27 ESE 14 22 29.78 1009 10 16 N/A
2:55 pm 14:55 Sunny 79 26 43 6.1 28 28 ESE 12 19 29.78 1009 10 16 N/A
3:15 pm 15:15 Sunny 79 26.3 42 5.7 27 27 SE 9 15 29.76 1008 10 16 N/A
3:35 pm 15:35 Sunny 80 26.6 42 5.3 26 26 ESE 10 17 29.75 1007 10 16 N/A
3:55 pm 15:55 Sunny 80 26.8 43 5.9 26 26 E 14 22 29.75 1007 10 16 N/A
4:15 pm 16:15 Sunny 81 27 42 5.5 25 25 ESE 13 20 29.74 1007 10 16 N/A
4:35 pm 16:35 Sunny 81 27.1 42 5.6 25 25 SE 14 22 29.73 1007 10 16 N/A
4:55 pm 16:55 Sunny 81 27 41 5.1 25 25 SE 12 19 29.72 1007 10 16 N/A
5:15 pm 17:15 Sunny 81 27 41 4.9 24 24 ESE 12 19 29.71 1006 10 16 N/A
5:35 pm 17:35 Sunny 80 26.5 41 5.2 26 26 ESE 12 19 29.72 1006 10 16 N/A
5:55 pm 17:55 Sunny 79 26.1 42 5.6 27 27 ESE 9 15 29.71 1006 10 16 N/A
6:15 pm 18:15 Sunny 78 25.4 43 6.2 29 29 ESE 13 20 29.72 1006 10 16 N/A
6:35 pm 18:35 Sunny 76 24.7 44 6.5 31 31 ESE 9 15 29.72 1007 10 16 N/A
6:55 pm 18:55 Sunny 74 23.5 44 6.8 34 34 ESE 9 15 29.73 1007 10 16 N/A
7:15 pm 19:15 Clear 72 22.4 45 7 37 37 ESE 9 15 29.74 1007 10 16 N/A
7:35 pm 19:35 Clear 71 21.4 45 7.3 40 40 ESE 8 13 29.75 1007 10 16 N/A
7:55 pm 19:55 Clear 69 20.8 46 7.5 42 42 ESE 7 11 29.76 1008 10 16 N/A
8:15 pm 20:15 Clear 68 19.8 46 7.5 45 45 ESE 7 11 29.76 1008 10 16 N/A
8:35 pm 20:35 Clear 66 18.9 46 7.6 48 48 ESE 7 11 29.76 1008 10 16 N/A
8:55 pm 20:55 Clear 65 18.3 46 7.8 51 51 SE 6 9 29.77 1008 10 16 N/A
9:15 pm 21:15 Clear 64 17.7 46 8 53 53 SE 7 11 29.77 1008 10 16 N/A
9:35 pm 21:35 Clear 64 17.6 46 8 54 54 SE 8 13 29.77 1008 10 16 N/A
9:55 pm 21:55 Clear 64 17.6 48 8.8 57 57 SE 9 15 29.77 1008 10 16 N/A
10:15 pm 22:15 Clear 63 17 48 9 59 59 ESE 7 11 29.77 1008 10 16 N/A
10:35 pm 22:35 Clear 61 16.3 49 9.2 63 63 SE 6 9 29.77 1008 10 16 N/A
10:55 pm 22:55 Clear 61 16.1 50 9.8 66 66 SE 7 11 29.78 1008 10 16 N/A
11:15 pm 23:15 Clear 60 15.8 50 10.2 70 70 SE 6 9 29.78 1008 10 16 N/A
11:35 pm 23:35 Clear 60 15.5 52 11 75 75 SE 8 13 29.77 1008 10 16 N/A
11:55 pm 23:55 Clear 61 15.9 53 11.6 76 76 SSE 5 7 29.77 1008 10 16 N/A

Powered by AerisWeather